TimeCST,TemperatureF,Dew PointF,Humidity,Sea Level PressureIn,VisibilityMPH,Wind Direction,Wind SpeedMPH,Gust SpeedMPH,PrecipitationIn,Events,Conditions,WindDirDegrees,DateUTC
12:53 AM,43.0,28.9,58,30.50,10.0,NNE,6.9,-,N/A,,Clear,20,2013-01-18 06:53:00
1:53 AM,42.1,28.9,60,30.49,10.0,NNE,6.9,-,N/A,,Clear,20,2013-01-18 07:53:00
2:53 AM,39.9,28.9,65,30.50,10.0,NE,4.6,-,N/A,,Clear,40,2013-01-18 08:53:00
3:53 AM,37.9,28.9,70,30.50,10.0,NNE,6.9,-,N/A,,Clear,20,2013-01-18 09:53:00
4:53 AM,37.9,28.0,68,30.49,10.0,Calm,Calm,-,N/A,,Clear,0,2013-01-18 10:53:00
5:53 AM,35.1,28.0,76,30.49,10.0,Calm,Calm,-,N/A,,Clear,0,2013-01-18 11:53:00
6:53 AM,33.1,27.0,78,30.51,10.0,NNE,3.5,-,N/A,,Clear,20,2013-01-18 12:53:00
7:53 AM,32.0,27.0,82,30.51,10.0,Calm,Calm,-,N/A,,Clear,0,2013-01-18 13:53:00
8:53 AM,42.1,30.9,65,30.51,10.0,Calm,Calm,-,N/A,,Clear,0,2013-01-18 14:53:00
9:53 AM,48.0,32.0,54,30.52,10.0,Calm,Calm,-,N/A,,Clear,0,2013-01-18 15:53:00
10:53 AM,52.0,30.9,45,30.52,10.0,South,9.2,-,N/A,,Clear,180,2013-01-18 16:53:00
11:53 AM,55.0,32.0,42,30.47,10.0,SSE,9.2,-,N/A,,Clear,150,2013-01-18 17:53:00
12:53 PM,57.0,30.0,36,30.41,10.0,South,11.5,-,N/A,,Clear,180,2013-01-18 18:53:00
1:53 PM,60.1,30.9,33,30.36,10.0,South,8.1,-,N/A,,Clear,170,2013-01-18 19:53:00
2:53 PM,62.1,28.9,29,30.34,10.0,Variable,4.6,-,N/A,,Clear,0,2013-01-18 20:53:00
3:53 PM,62.1,27.0,26,30.33,10.0,South,8.1,-,N/A,,Clear,180,2013-01-18 21:53:00
4:53 PM,62.1,28.0,28,30.32,10.0,SSE,4.6,-,N/A,,Clear,160,2013-01-18 22:53:00
5:53 PM,57.9,30.0,35,30.34,10.0,SSE,4.6,-,N/A,,Clear,150,2013-01-18 23:53:00
6:53 PM,54.0,30.9,41,30.35,10.0,SE,4.6,-,N/A,,Clear,130,2013-01-19 00:53:00
7:53 PM,50.0,32.0,50,30.35,10.0,Calm,Calm,-,N/A,,Clear,0,2013-01-19 01:53:00
8:53 PM,46.0,32.0,58,30.35,10.0,Calm,Calm,-,N/A,,Clear,0,2013-01-19 02:53:00
9:53 PM,44.1,33.1,65,30.35,10.0,Calm,Calm,-,N/A,,Clear,0,2013-01-19 03:53:00
10:53 PM,43.0,32.0,65,30.33,10.0,Calm,Calm,-,N/A,,Clear,0,2013-01-19 04:53:00
11:53 PM,44.1,30.9,60,30.32,10.0,Calm,Calm,-,N/A,,Clear,0,2013-01-19 05:53:00